SCP
0 0 0 0 0 0 0 0 0 0 0 0 -0 -0 -0 0 0 -0 -0 -0 -0 0 0 0 0 0 0 0 0 0 0 0 0 0 0 0 0 0 0 0 -0 -0 0 -0 -0 0 -0 -0 -0 0 0 0 0 0
0 0 0 -0 -0 0 0 0 0 0 0 0 -0 -0 -0 0 0 0 0 0 0 0 0 0 0 0 0 0 0 0 0 0 0 0 0 0 0 0 0 0 0 0 0 0 -0 -0 0 0 0 0 0 0 0 0
0 0 0 -0 -0 -0 0 0 0 0 0 0 0 -0 -0 0 0 0 0 0 0 0 0 0 0 0 0 0 0 0 0 0 0 0 0 0 0 0 0 0 0 0 -0 0 -0 -0 0 -0 0 0 0 0 0 0
0 0 0 -0 -0 0 0 0 0 0 0 0 0 -0 0 0 0 0 0 0 0 0 0 0 0 0 0 0 0 0 0 0 0 0 0 0 0 0 0 0 0 0 0 0 0 0 -0 0 0 0 0 0 0 0
0 0 0 -0 -0 0 0 0 0 0 0 0 0 0 0 0 0 0 0 0 0 0 0 0 0 0 0 0 0 0 0 0 0 0 0 0 0 0 0 0 0 -0 0 0 0 0 0 0 0 0 0 0 0 0
0 0 0 -0 0 0 0 0 0 0 0 0 0 0 0 0 0 0 0 0 0 0 0 0 0 0 0 0 0 0 0 0 0 0 0 0 0 0 0 0 0 0 0 -0 -0 0 0 -0 0 0 0 0 0 0
0 0 0 -0 0 0 0 0 0 0 0 0 0 0 0 0 0 0 0 0 0 0 0 0 0 0 0 0 0 0 0 0 0 0 0 0 0 0 0 0 0 0 0 -0 -0 -0 0 -0 0 0 0 0 0 0
-0 0 0 0 0 0 0 0 0 0 0 0 0 0 0 0 0 0 0 0 0 0 0 0 0 0 0 0 0 0 0 0 0 0 0 0 0 0 0 0 0 -0 0 0 -0 -0 0 0 0 0 0 0 0 0
-0 0 0 0 0 0 0 0 0 0 0 0 0 0 0 0 0 0 0 0 0 0 0 0 0 0 0 0 0 0 0 0 0 0 0 0 0 0 0 0 -0 -0 -0 -0 0 0 -0 -0 0 0 0 0 0 0
0 0 0 0 0 0 0 0 0 0 0 0 0 0 0 0 0 0 0 0 0 0 0 0 0 0 0 0 0 0 0 0 0 0 0 0 0 0 0 0 0 -0 -0 -0 0 -0 -0 -0 0 0 0 0 0 0
-0 -0 -0 0 0 0 0 0 0 0 0 0 0 0 0 0 0 0 0 0 0 0 0 0 0 0 0 0 0 0 0 0 0 0 0 0 0 0 0 0 0 0 -0 -0 0 0 0 0 -0 -0 0 0 0 0
-0 -0 -0 -0 0 0 0 0 0 0 0 0 0 0 0 0 0 0 0 0 0 0 0 0 0 0 0 0 0 0 0 0 0 0 0 0 0 0 0 0 0 0 0 0 -0 0 0 0 0 0 0 0 0 0
-0 -0 -0 -0 0 0 0 0 0 0 0 0 0 0 0 0 0 0 0 0 0 0 0 0 0 0 0 0 0 0 0 0 0 0 0 0 0 0 0 0 0 0 0 0 -0 -0 -0 0 0 0 0 -0 -0 0
-0 -0 -0 -0 0 0 0 0 0 0 0 0 0 0 0 0 0 0 0 0 0 0 0 0 0 0 0 0 0 0 0 0 0 0 0 0 0 0 0 0 0 0 0 0 0 -0 -0 -0 0 0 0 0 -0 -0
-0 -0 0 0 0 0 0 0 0 0 0 0 0 0 0 0 0 0 0 0 0 0 0 0 0 0 0 0 0 0 0 0 0 0 0 0 0 0 0 0 0 0 0 0 0 0 0 -0 -0 0 -0 -0 -0 0
-0 -0 0 -0 -0 0 0 0 0 0 0 0 0 0 0 0 0 0 0 0 0 0 0 0 0 0 0 0 0 0 0 0 0 0 0 0 0 0 0 0 0 0 0 0 0 0 0 0 0 0 -0 -0 -0 0
-0 0 -0 -0 -0 0 0 0 0 0 0 0 0 0 0 0 0 0 0 0 0 0 0 0 0 0 0 0 0 0 0 0 0 0 0 0 0 0 0 0 0 0 0 0 0 0 0 0 0 0 0 0 -0 -0
0 -0 -0 -0 0 0 0 0 0 0 0 0 0 0 0 0 0 0 0 0 0 0 0 0 0 0 0 0 0 0 0 -0 0 0 0 0 0 0 0 0 0 0 0 0 0 0 0 0 0 0 -0 -0 -0 -0
-0 -0 -0 0 -0 0 0 0 0 0 0 0 0 0 0 0 0 0 0 0 0 0 0 0 0 0 0 0 0 -0 -0 -0 0 0 0 0 0 0 0 0 0 0 0 0 0 0 0 0 0 0 0 -0 0 0
-0 -0 -0 -0 -0 0 0 0 0 0 0 0 0 0 0 0 0 0 0 0 0 0 0 0 0 0 0 -0 0 0 -0 0 0 0 0 0 0 0 0 0 0 0 0 0 0 0 0 0 0 0 0 0 0 0
-0 -0 -0 -0 0 0 0 0 0 0 0 0 0 0 0 0 0 0 0 0 0 0 0 0 0 0 0 0 -0 0 0 0 0 0 0 0 0 0 0 0 0 0 0 0 0 0 -0 0 0 0 0 0 0 0
0 -0 0 -0 -0 0 0 0 0 0 0 0 0 0 0 0 0 0 0 0 0 0 0 0 0 0 0 0 0 0 0 0 0 0 0 0 0 0 0 0 0 0 0 0 0 0 0 0 0 0 0 0 -0 0
0 -0 -0 -0 -0 0 0 0 0 0 0 0 0 0 0 0 0 0 0 0 0 0 0 0 0 0 0 0 0 0 0 0 0 0 0 0 0 0 0 0 0 0 0 0 0 0 0 0 0 0 0 0 0 0
-0 0 0 -0 0 0 -0 0 0 0 0 0 0 0 0 0 0 0 0 0 0 0 0 0 0 0 0 0 0 0 0 0 0 0 0 0 0 0 0 0 0 0 0 0 0 0 0 0 0 0 0 0 0 0
0 0 0 0 -0 0 0 0 0 0 0 0 0 0 0 0 0 0 0 0 0 0 0 0 0 0 0 0 0 0 0 0 0 0 0 0 0 0 0 0 0 0 0 0 0 -0 0 0 0 0 0 0 0 0
0 0 0 0 0 0 0 0 0 0 0 0 0 0 0 0 0 0 0 0 0 0 0 0 0 0 0 0 0 0 0 0 0 0 0 0 0 0 0 0 0 0 0 0 0 0 0 0 0 0 0 0 0 0
0 0 0 -0 -0 0 0 0 0 0 0 0 0 0 0 0 0 0 0 0 0 0 0 0 0 0 0 0 0 0 0 0 0 0 0 0 0 0 0 0 0 0 -0 -0 -0 0 0 0 -0 0 0 0 0 0
0 -0 0 0 -0 0 0 0 0 0 0 0 0 0 0 0 0 0 0 0 0 0 0 0 0 0 0 0 0 0 0 0 0 0 0 0 0 0 0 -0 0 -0 -0 -0 -0 -0 0 -0 -0 0 0 0 0 -0
0 0 0 0 0 0 0 0 0 0 0 0 0 0 0 0 0 0 0 0 0 0 0 0 0 0 0 0 0 0 0 0 0 0 0 0 0 0 0 0 0 0 -0 -0 -0 -0 -0 -0 0 0 0 -0 -0 0
0 0 0 -0 0 0 0 0 0 0 0 0 0 0 0 0 0 0 0 0 0 0 0 0 0 0 0 0 0 0 0 0 0 0 0 0 0 0 0 0 -0 -0 -0 -0 -0 -0 0 0 0 0 0 -0 -0 -0
0 0 0 -0 0 0 0 0 0 0 0 0 0 0 0 0 0 0 0 0 0 0 0 0 0 0 0 0 0 0 0 0 0 0 0 0 0 0 0 0 0 0 -0 -0 -0 -0 0 0 0 0 -0 -0 -0 -0
0 -0 0 0 0 0 0 0 0 0 0 0 0 0 0 0 0 0 0 0 0 0 0 0 0 0 0 0 0 0 0 0 0 0 0 0 0 0 0 0 0 0 0 0 0 0 0 0 0 0 0 0 -0 -0
0 0 0 0 0 0 0 0 0 0 0 0 0 0 0 0 0 0 0 0 0 0 0 0 0 0 0 0 0 0 0 0 0 0 0 0 0 0 0 0 0 0 0 0 0 0 0 0 0 0 0 0 0 0
Wind_Speed_500mb
16 24 32 40 42 39 33 33 37 34 23 22 14 18 27 25 22 22 13 12 10 5 15 11 13 15 18 6 7 21 10 4 4 5 5 5 6 4 5 4 10 20 16 17 24 30 32 17 14 11 19 12 10 5
21 26 35 40 39 34 29 33 33 26 19 17 7 19 23 15 11 7 1 3 3 3 5 8 8 12 10 15 10 9 7 8 4 4 3 5 4 5 11 3 4 7 9 6 10 7 22 23 22 42 40 23 10 10
22 30 37 37 35 28 26 31 27 20 16 12 3 13 18 15 8 2 6 10 9 7 7 4 13 7 13 8 7 9 7 11 6 6 7 4 5 5 8 7 5 7 5 6 4 7 17 18 29 35 32 25 15 10
24 32 37 34 29 21 25 28 21 17 13 10 5 8 18 15 8 2 3 6 4 8 10 9 8 7 13 13 8 9 18 12 8 8 7 5 6 12 7 5 5 8 14 9 9 15 29 14 33 28 5 10 6 8
26 33 34 29 20 17 23 25 16 16 10 7 7 5 4 2 4 5 3 3 9 4 11 6 2 3 10 13 17 14 9 7 7 8 8 7 10 7 9 8 4 25 10 8 4 31 23 16 27 22 18 14 7 10
28 32 28 23 14 13 20 21 16 13 11 7 2 3 3 2 6 5 2 5 12 5 8 5 4 10 10 4 5 12 16 13 12 6 3 6 7 13 8 6 24 31 36 44 28 34 46 23 37 32 31 31 31 29
28 27 23 18 11 10 17 19 16 14 10 7 4 5 5 6 5 3 4 8 17 6 6 10 6 5 14 23 17 10 20 8 8 4 9 9 8 12 5 6 36 41 35 46 55 41 37 55 37 41 38 37 38 37
26 22 20 17 13 11 12 18 17 14 12 10 11 12 12 12 11 6 9 17 12 4 5 6 6 7 5 4 2 4 7 2 7 4 7 9 13 10 4 35 36 39 37 37 43 49 42 47 54 53 49 42 46 53
22 20 19 18 15 14 13 15 17 15 16 13 12 13 11 4 5 11 19 10 4 8 4 4 4 9 6 4 2 0 7 2 1 4 5 5 5 6 13 31 30 34 40 38 38 42 45 52 52 56 55 51 44 43
19 19 20 20 17 13 12 14 16 14 16 12 8 2 7 9 17 10 2 2 4 4 6 7 5 5 7 9 5 6 3 1 2 2 4 4 5 11 19 23 22 24 30 34 40 46 47 49 50 48 50 49 47 43
18 19 20 18 14 11 12 13 14 13 12 6 4 5 13 13 2 0 4 7 5 7 11 9 10 13 4 7 1 4 3 3 1 2 4 4 6 15 15 20 20 17 20 26 31 32 37 41 41 44 46 46 47 48
20 20 20 19 14 9 13 13 12 12 8 11 13 15 8 5 6 8 2 3 7 6 4 12 12 12 6 7 7 10 5 6 1 3 1 4 6 10 13 16 16 13 14 16 20 25 29 34 37 40 41 45 45 40
22 23 23 21 17 11 11 15 13 13 18 10 3 5 7 6 3 2 4 8 8 14 14 16 15 5 6 11 7 7 7 2 4 3 3 3 9 6 11 11 15 11 8 11 13 17 21 26 30 36 37 39 41 42
24 26 24 19 15 11 10 17 14 13 8 5 7 6 6 3 8 4 14 14 22 18 25 19 15 12 12 10 5 6 4 7 3 2 7 4 7 3 8 13 12 14 11 9 11 12 15 19 24 28 31 33 34 35
26 25 14 6 2 6 14 17 12 11 5 7 6 5 7 9 20 13 17 16 15 15 16 14 11 10 8 6 5 1 6 4 7 5 4 8 2 4 7 8 12 12 13 13 13 16 16 18 23 27 30 27 24 26
26 16 5 7 9 14 17 14 11 9 5 6 8 12 13 18 25 20 13 22 9 13 9 11 9 7 8 4 8 5 1 5 2 3 3 1 1 7 11 8 8 7 6 10 16 16 12 15 18 22 28 28 22 24
24 6 16 14 12 10 11 5 4 6 7 7 10 13 22 26 26 28 24 23 13 18 16 13 8 14 10 5 3 5 9 12 5 3 2 2 3 5 12 8 6 3 2 3 13 16 12 13 14 17 24 26 21 20
21 11 9 7 5 9 6 9 5 7 10 15 15 21 18 23 26 28 17 17 14 13 9 0 7 4 4 3 4 9 13 13 10 6 5 3 4 6 8 9 7 3 5 2 6 10 12 11 9 11 13 20 15 13
10 10 8 4 4 4 3 5 7 8 10 14 15 17 17 13 14 17 16 16 20 13 5 3 3 3 7 2 9 12 12 19 8 8 8 9 7 7 7 6 4 2 6 5 1 11 12 10 10 9 10 15 16 11
13 7 2 5 5 4 4 6 7 9 10 10 13 17 15 13 12 16 17 10 8 4 4 7 10 10 4 10 19 21 19 8 12 5 12 8 3 4 6 7 7 3 7 11 3 5 5 9 12 7 7 11 13 9
4 5 7 2 4 9 5 5 8 8 11 9 12 16 8 12 18 17 16 12 15 15 10 11 7 8 9 8 12 19 19 18 17 15 12 7 8 9 9 6 3 6 11 10 6 3 4 10 9 5 6 9 9 8
9 9 3 3 3 5 6 8 7 9 7 11 9 8 7 12 12 13 13 19 16 13 7 4 8 3 11 11 22 21 15 14 19 11 11 6 10 12 4 4 4 5 3 4 4 1 4 5 6 5 8 9 8 9
6 1 2 4 5 5 5 5 5 3 6 8 6 2 4 4 7 7 7 12 13 14 10 7 8 13 19 20 19 16 10 8 9 5 7 2 2 2 3 1 2 2 8 1 4 3 4 6 5 5 7 8 9 8
4 4 4 5 7 4 3 5 4 5 5 6 4 2 3 6 6 3 7 11 10 13 15 12 9 12 13 8 17 15 12 4 8 5 5 5 3 6 6 3 3 6 3 5 0 3 9 6 2 4 4 5 4 5
4 5 5 7 6 6 6 4 4 4 4 3 4 2 3 2 1 3 8 11 14 17 17 17 18 17 17 15 14 15 19 13 12 7 10 6 3 6 3 1 7 3 3 7 1 3 7 8 7 6 5 5 4 4
1 7 10 6 6 6 1 4 4 4 4 3 2 5 3 1 0 5 7 16 14 18 17 19 18 18 15 16 18 17 15 10 8 12 14 12 8 10 12 7 7 10 7 4 8 6 7 8 5 5 4 2 5 6
4 8 8 9 4 4 5 4 5 7 5 4 4 6 4 2 3 5 4 8 10 10 13 15 16 16 16 15 12 14 16 17 17 11 10 12 13 13 13 12 12 11 9 7 4 9 9 9 8 6 7 10 5 7
9 6 9 13 10 10 6 5 5 5 5 5 6 5 2 4 4 6 6 6 9 10 11 13 16 17 17 17 16 15 14 15 18 17 16 16 16 16 15 13 7 12 11 11 10 9 10 8 7 8 9 8 10 12
9 9 12 12 11 8 9 7 5 4 5 9 4 3 5 6 11 12 12 12 11 9 8 11 13 14 16 16 14 10 8 7 6 10 11 15 15 17 16 15 16 14 12 12 9 11 11 10 9 9 10 10 8 8
9 16 10 7 7 6 4 8 4 6 7 9 10 10 10 13 17 20 17 13 9 6 6 8 10 10 11 11 12 16 19 18 16 14 14 15 15 14 14 13 13 12 12 11 9 11 15 10 9 6 5 8 8 7
6 13 8 10 4 2 3 6 6 9 10 8 8 8 13 14 21 20 17 16 14 11 8 8 10 10 10 11 12 15 20 19 22 21 19 15 13 12 11 11 11 10 8 8 9 8 8 9 8 8 8 9 9 10
12 14 9 6 5 4 9 7 8 9 10 11 9 13 12 13 13 16 25 22 17 13 12 9 8 10 11 14 18 20 23 18 16 14 13 12 11 10 10 10 11 11 13 12 11 9 7 7 7 8 7 8 8 10
12 12 12 8 7 8 11 11 9 5 6 7 10 17 18 12 9 16 26 29 18 17 16 16 14 14 13 15 17 19 18 15 13 12 11 11 14 19 14 11 13 13 12 10 9 8 8 8 6 5 6 7 9 11
Wind_Direction_500mb
330 343 339 339 342 343 345 351 353 356 10 20 38 101 124 112 108 96 95 126 101 45 37 19 7 351 343 300 313 329 287 61 294 296 310 0 291 320 274 164 182 193 198 208 233 250 248 31 6 240 325 1 340 298
332 342 337 338 340 343 346 351 356 2 17 21 65 105 108 143 141 120 351 3 45 157 358 11 342 347 331 296 282 315 338 306 327 302 318 293 301 306 303 108 292 224 232 247 246 229 359 327 247 265 300 309 304 328
332 339 335 338 339 343 347 351 357 3 12 30 52 153 127 128 142 80 331 333 349 311 240 34 36 9 9 344 250 297 49 357 349 329 309 310 316 331 340 9 314 236 259 246 303 187 267 251 268 272 287 304 297 310
333 335 334 337 338 343 349 354 359 4 12 35 58 171 186 198 203 147 345 313 330 298 292 108 50 26 34 25 5 267 284 321 314 341 352 16 321 355 320 282 309 307 315 280 264 280 307 246 264 277 261 288 309 329
333 333 333 337 339 351 355 2 7 7 13 29 59 133 140 208 287 241 275 273 340 298 320 352 179 185 55 22 24 10 3 340 1 46 9 8 321 331 288 293 36 357 354 346 336 338 344 351 20 29 68 38 25 17
331 331 336 339 341 356 3 7 12 358 4 3 167 152 158 39 36 13 353 273 328 306 282 297 151 267 233 112 16 12 21 25 49 62 90 305 331 330 337 333 359 27 33 19 357 350 18 11 20 51 55 62 60 51
328 332 337 339 337 342 1 6 7 352 338 332 264 257 285 318 337 228 316 269 314 301 266 286 223 212 242 229 239 244 309 344 3 41 13 339 340 330 349 321 5 19 30 22 22 18 19 25 18 32 50 58 67 62
326 332 338 340 332 319 336 354 354 348 338 306 282 272 284 295 299 320 293 309 306 260 258 283 306 160 203 256 249 200 247 290 32 23 359 9 336 357 7 359 10 19 26 31 26 30 26 28 28 31 40 48 49 51
325 330 337 339 327 316 322 335 342 337 331 316 293 286 290 262 255 259 298 291 257 199 259 229 285 3 185 234 180 56 240 217 266 40 32 30 346 32 335 355 11 19 23 25 31 29 26 26 27 25 29 33 41 45
320 327 336 340 327 322 321 323 327 328 326 317 296 260 228 239 302 300 319 292 210 240 223 248 262 307 224 199 206 164 283 350 298 25 235 83 284 45 8 0 9 24 30 24 29 27 28 28 24 23 25 26 30 37
319 325 335 334 326 342 341 325 321 321 324 319 252 257 261 300 293 186 254 230 138 226 204 240 246 309 286 285 349 219 131 203 285 133 289 350 335 32 9 7 2 25 35 29 28 30 29 31 33 31 29 31 30 30
319 323 326 316 303 316 349 333 318 308 293 272 263 275 281 242 238 259 304 197 234 314 274 274 328 275 265 252 247 189 220 212 326 137 321 329 14 8 360 7 4 4 26 39 36 26 29 29 31 35 35 32 32 30
320 322 314 300 288 273 330 335 314 307 313 303 231 230 225 211 318 19 337 289 307 331 303 286 290 230 211 222 250 229 225 43 128 168 220 278 46 357 359 353 359 357 2 28 31 32 28 26 26 26 30 35 31 31
329 324 315 295 276 253 296 325 309 301 305 248 238 293 253 227 250 303 309 320 327 308 310 305 281 213 206 217 280 240 62 214 236 152 235 21 62 3 337 347 344 356 5 5 17 15 15 22 23 21 18 19 28 37
335 332 339 357 256 256 302 305 289 280 276 269 259 256 237 312 295 297 308 289 298 302 305 279 241 242 193 225 220 156 211 190 198 233 8 35 14 326 332 332 339 345 359 4 12 9 13 11 11 16 16 13 17 27
343 329 323 321 302 300 297 294 255 263 255 244 242 261 270 288 311 326 312 287 298 301 291 244 254 230 210 232 200 203 270 197 97 350 17 60 239 312 312 301 320 327 338 13 14 11 10 27 17 15 17 20 26 30
349 296 297 298 299 303 292 243 246 237 253 241 247 281 297 300 302 316 324 327 322 315 346 5 342 5 345 325 56 27 24 19 324 246 269 84 4 343 324 309 309 300 214 46 28 20 18 14 19 26 21 25 32 34
342 321 315 300 301 318 287 201 242 251 251 256 277 314 319 310 318 346 6 359 360 26 55 178 76 290 252 320 37 0 322 299 266 255 192 191 271 327 328 321 325 272 197 176 58 31 23 15 15 39 27 15 21 37
329 312 308 225 336 299 243 236 220 268 263 303 302 327 330 340 21 7 16 31 28 10 144 141 196 314 51 304 275 289 304 288 253 183 198 235 282 278 286 309 325 291 227 195 44 34 42 41 28 9 12 14 26 32
320 303 250 267 259 219 244 226 232 266 285 341 322 347 358 32 29 37 28 19 357 5 69 20 34 83 139 227 248 289 298 315 267 263 242 218 314 296 274 284 290 228 185 169 176 5 28 53 34 33 38 26 20 47
332 322 325 240 239 216 258 254 247 268 307 312 338 352 48 42 35 29 30 19 29 28 60 84 126 313 209 221 297 312 276 259 237 268 304 358 351 301 285 271 247 200 193 202 252 173 2 27 27 51 38 30 41 59
304 306 279 238 220 241 253 241 267 290 278 313 335 7 42 45 33 27 358 36 39 28 23 290 263 275 327 278 303 321 284 254 237 261 230 254 293 290 223 158 150 168 236 277 249 172 53 30 38 54 62 64 74 70
320 266 213 216 235 237 243 266 261 262 279 326 319 13 51 52 18 5 69 29 26 5 5 347 312 276 307 318 323 327 301 235 248 275 162 114 6 130 166 217 192 11 320 201 232 212 93 123 94 78 74 78 103 99
298 202 216 225 221 249 236 234 242 267 274 289 330 7 49 15 355 37 44 34 7 16 20 18 2 350 333 5 22 29 43 54 353 81 102 341 165 144 140 132 85 78 8 342 91 191 147 118 104 104 102 93 69 47
272 200 213 231 222 234 225 218 230 244 273 294 298 112 73 331 15 65 29 13 6 5 359 357 351 352 357 18 35 31 42 29 16 57 14 21 152 165 197 246 320 286 162 273 210 219 108 101 112 93 75 75 34 335
257 196 195 203 172 234 239 256 226 259 274 253 116 98 162 204 346 60 28 359 5 6 8 8 11 12 33 13 2 0 1 24 54 57 61 50 23 337 357 17 98 92 89 128 13 58 85 91 102 96 60 32 83 48
255 194 199 215 238 235 246 254 273 253 243 230 163 178 202 274 74 85 46 28 25 32 52 47 33 24 12 9 25 56 68 72 77 74 65 52 45 43 41 55 77 69 66 82 49 85 97 105 100 58 54 75 56 34
243 229 217 181 213 230 265 246 237 231 200 183 177 208 318 20 89 132 118 112 89 87 77 52 43 42 54 64 75 74 56 58 77 76 62 68 56 51 49 39 55 80 85 87 80 89 84 77 67 76 73 66 60 64
222 205 200 222 221 222 228 232 250 211 189 185 220 131 121 96 138 144 147 138 116 86 57 44 44 45 52 55 52 34 21 35 56 66 77 80 69 49 56 70 93 85 82 82 106 102 88 95 92 79 67 64 80 75
213 191 215 219 224 222 187 206 231 190 170 162 140 123 127 140 167 167 162 150 136 126 98 81 59 56 55 45 44 57 63 71 79 101 100 81 73 73 74 80 79 81 84 81 73 64 74 75 79 81 57 54 53 78
181 192 232 240 244 178 203 187 160 156 160 169 165 187 168 173 184 184 182 175 161 143 123 100 73 64 57 69 92 97 91 81 85 93 96 87 83 87 88 86 84 81 82 91 100 94 83 81 81 71 60 52 51 47
205 216 227 235 190 209 159 192 193 200 188 186 180 176 168 184 195 199 198 180 171 166 166 140 113 94 88 96 108 114 116 105 92 86 84 86 83 86 88 85 77 81 89 94 101 104 88 78 82 72 57 41 20 9
216 222 233 243 207 205 195 188 200 193 210 219 207 202 198 204 211 201 197 183 181 182 164 155 136 123 118 125 128 125 122 117 115 112 104 107 114 114 99 96 93 92 96 99 94 87 86 85 75 49 31 19 4 354
Wind_Speed_850mb
16 24 32 40 42 39 33 33 37 34 23 22 14 18 27 25 22 22 13 12 10 5 15 11 13 15 18 6 7 21 10 4 4 5 5 5 6 4 5 4 10 20 16 17 24 30 32 17 14 11 19 12 10 5
21 26 35 40 39 34 29 33 33 26 19 17 7 19 23 15 11 7 1 3 3 3 5 8 8 12 10 15 10 9 7 8 4 4 3 5 4 5 11 3 4 7 9 6 10 7 22 23 22 42 40 23 10 10
22 30 37 37 35 28 26 31 27 20 16 12 3 13 18 15 8 2 6 10 9 7 7 4 13 7 13 8 7 9 7 11 6 6 7 4 5 5 8 7 5 7 5 6 4 7 17 18 29 35 32 25 15 10
24 32 37 34 29 21 25 28 21 17 13 10 5 8 18 15 8 2 3 6 4 8 10 9 8 7 13 13 8 9 18 12 8 8 7 5 6 12 7 5 5 8 14 9 9 15 29 14 33 28 5 10 6 8
26 33 34 29 20 17 23 25 16 16 10 7 7 5 4 2 4 5 3 3 9 4 11 6 2 3 10 13 17 14 9 7 7 8 8 7 10 7 9 8 4 25 10 8 4 31 23 16 27 22 18 14 7 10
28 32 28 23 14 13 20 21 16 13 11 7 2 3 3 2 6 5 2 5 12 5 8 5 4 10 10 4 5 12 16 13 12 6 3 6 7 13 8 6 24 31 36 44 28 34 46 23 37 32 31 31 31 29
28 27 23 18 11 10 17 19 16 14 10 7 4 5 5 6 5 3 4 8 17 6 6 10 6 5 14 23 17 10 20 8 8 4 9 9 8 12 5 6 36 41 35 46 55 41 37 55 37 41 38 37 38 37
26 22 20 17 13 11 12 18 17 14 12 10 11 12 12 12 11 6 9 17 12 4 5 6 6 7 5 4 2 4 7 2 7 4 7 9 13 10 4 35 36 39 37 37 43 49 42 47 54 53 49 42 46 53
22 20 19 18 15 14 13 15 17 15 16 13 12 13 11 4 5 11 19 10 4 8 4 4 4 9 6 4 2 0 7 2 1 4 5 5 5 6 13 31 30 34 40 38 38 42 45 52 52 56 55 51 44 43
19 19 20 20 17 13 12 14 16 14 16 12 8 2 7 9 17 10 2 2 4 4 6 7 5 5 7 9 5 6 3 1 2 2 4 4 5 11 19 23 22 24 30 34 40 46 47 49 50 48 50 49 47 43
18 19 20 18 14 11 12 13 14 13 12 6 4 5 13 13 2 0 4 7 5 7 11 9 10 13 4 7 1 4 3 3 1 2 4 4 6 15 15 20 20 17 20 26 31 32 37 41 41 44 46 46 47 48
20 20 20 19 14 9 13 13 12 12 8 11 13 15 8 5 6 8 2 3 7 6 4 12 12 12 6 7 7 10 5 6 1 3 1 4 6 10 13 16 16 13 14 16 20 25 29 34 37 40 41 45 45 40
22 23 23 21 17 11 11 15 13 13 18 10 3 5 7 6 3 2 4 8 8 14 14 16 15 5 6 11 7 7 7 2 4 3 3 3 9 6 11 11 15 11 8 11 13 17 21 26 30 36 37 39 41 42
24 26 24 19 15 11 10 17 14 13 8 5 7 6 6 3 8 4 14 14 22 18 25 19 15 12 12 10 5 6 4 7 3 2 7 4 7 3 8 13 12 14 11 9 11 12 15 19 24 28 31 33 34 35
26 25 14 6 2 6 14 17 12 11 5 7 6 5 7 9 20 13 17 16 15 15 16 14 11 10 8 6 5 1 6 4 7 5 4 8 2 4 7 8 12 12 13 13 13 16 16 18 23 27 30 27 24 26
26 16 5 7 9 14 17 14 11 9 5 6 8 12 13 18 25 20 13 22 9 13 9 11 9 7 8 4 8 5 1 5 2 3 3 1 1 7 11 8 8 7 6 10 16 16 12 15 18 22 28 28 22 24
24 6 16 14 12 10 11 5 4 6 7 7 10 13 22 26 26 28 24 23 13 18 16 13 8 14 10 5 3 5 9 12 5 3 2 2 3 5 12 8 6 3 2 3 13 16 12 13 14 17 24 26 21 20
21 11 9 7 5 9 6 9 5 7 10 15 15 21 18 23 26 28 17 17 14 13 9 0 7 4 4 3 4 9 13 13 10 6 5 3 4 6 8 9 7 3 5 2 6 10 12 11 9 11 13 20 15 13
10 10 8 4 4 4 3 5 7 8 10 14 15 17 17 13 14 17 16 16 20 13 5 3 3 3 7 2 9 12 12 19 8 8 8 9 7 7 7 6 4 2 6 5 1 11 12 10 10 9 10 15 16 11
13 7 2 5 5 4 4 6 7 9 10 10 13 17 15 13 12 16 17 10 8 4 4 7 10 10 4 10 19 21 19 8 12 5 12 8 3 4 6 7 7 3 7 11 3 5 5 9 12 7 7 11 13 9
4 5 7 2 4 9 5 5 8 8 11 9 12 16 8 12 18 17 16 12 15 15 10 11 7 8 9 8 12 19 19 18 17 15 12 7 8 9 9 6 3 6 11 10 6 3 4 10 9 5 6 9 9 8
9 9 3 3 3 5 6 8 7 9 7 11 9 8 7 12 12 13 13 19 16 13 7 4 8 3 11 11 22 21 15 14 19 11 11 6 10 12 4 4 4 5 3 4 4 1 4 5 6 5 8 9 8 9
6 1 2 4 5 5 5 5 5 3 6 8 6 2 4 4 7 7 7 12 13 14 10 7 8 13 19 20 19 16 10 8 9 5 7 2 2 2 3 1 2 2 8 1 4 3 4 6 5 5 7 8 9 8
4 4 4 5 7 4 3 5 4 5 5 6 4 2 3 6 6 3 7 11 10 13 15 12 9 12 13 8 17 15 12 4 8 5 5 5 3 6 6 3 3 6 3 5 0 3 9 6 2 4 4 5 4 5
4 5 5 7 6 6 6 4 4 4 4 3 4 2 3 2 1 3 8 11 14 17 17 17 18 17 17 15 14 15 19 13 12 7 10 6 3 6 3 1 7 3 3 7 1 3 7 8 7 6 5 5 4 4
1 7 10 6 6 6 1 4 4 4 4 3 2 5 3 1 0 5 7 16 14 18 17 19 18 18 15 16 18 17 15 10 8 12 14 12 8 10 12 7 7 10 7 4 8 6 7 8 5 5 4 2 5 6
4 8 8 9 4 4 5 4 5 7 5 4 4 6 4 2 3 5 4 8 10 10 13 15 16 16 16 15 12 14 16 17 17 11 10 12 13 13 13 12 12 11 9 7 4 9 9 9 8 6 7 10 5 7
9 6 9 13 10 10 6 5 5 5 5 5 6 5 2 4 4 6 6 6 9 10 11 13 16 17 17 17 16 15 14 15 18 17 16 16 16 16 15 13 7 12 11 11 10 9 10 8 7 8 9 8 10 12
9 9 12 12 11 8 9 7 5 4 5 9 4 3 5 6 11 12 12 12 11 9 8 11 13 14 16 16 14 10 8 7 6 10 11 15 15 17 16 15 16 14 12 12 9 11 11 10 9 9 10 10 8 8
9 16 10 7 7 6 4 8 4 6 7 9 10 10 10 13 17 20 17 13 9 6 6 8 10 10 11 11 12 16 19 18 16 14 14 15 15 14 14 13 13 12 12 11 9 11 15 10 9 6 5 8 8 7
6 13 8 10 4 2 3 6 6 9 10 8 8 8 13 14 21 20 17 16 14 11 8 8 10 10 10 11 12 15 20 19 22 21 19 15 13 12 11 11 11 10 8 8 9 8 8 9 8 8 8 9 9 10
12 14 9 6 5 4 9 7 8 9 10 11 9 13 12 13 13 16 25 22 17 13 12 9 8 10 11 14 18 20 23 18 16 14 13 12 11 10 10 10 11 11 13 12 11 9 7 7 7 8 7 8 8 10
12 12 12 8 7 8 11 11 9 5 6 7 10 17 18 12 9 16 26 29 18 17 16 16 14 14 13 15 17 19 18 15 13 12 11 11 14 19 14 11 13 13 12 10 9 8 8 8 6 5 6 7 9 11
Wind_Direction_850mb
330 343 339 339 342 343 345 351 353 356 10 20 38 101 124 112 108 96 95 126 101 45 37 19 7 351 343 300 313 329 287 61 294 296 310 0 291 320 274 164 182 193 198 208 233 250 248 31 6 240 325 1 340 298
332 342 337 338 340 343 346 351 356 2 17 21 65 105 108 143 141 120 351 3 45 157 358 11 342 347 331 296 282 315 338 306 327 302 318 293 301 306 303 108 292 224 232 247 246 229 359 327 247 265 300 309 304 328
332 339 335 338 339 343 347 351 357 3 12 30 52 153 127 128 142 80 331 333 349 311 240 34 36 9 9 344 250 297 49 357 349 329 309 310 316 331 340 9 314 236 259 246 303 187 267 251 268 272 287 304 297 310
333 335 334 337 338 343 349 354 359 4 12 35 58 171 186 198 203 147 345 313 330 298 292 108 50 26 34 25 5 267 284 321 314 341 352 16 321 355 320 282 309 307 315 280 264 280 307 246 264 277 261 288 309 329
333 333 333 337 339 351 355 2 7 7 13 29 59 133 140 208 287 241 275 273 340 298 320 352 179 185 55 22 24 10 3 340 1 46 9 8 321 331 288 293 36 357 354 346 336 338 344 351 20 29 68 38 25 17
331 331 336 339 341 356 3 7 12 358 4 3 167 152 158 39 36 13 353 273 328 306 282 297 151 267 233 112 16 12 21 25 49 62 90 305 331 330 337 333 359 27 33 19 357 350 18 11 20 51 55 62 60 51
328 332 337 339 337 342 1 6 7 352 338 332 264 257 285 318 337 228 316 269 314 301 266 286 223 212 242 229 239 244 309 344 3 41 13 339 340 330 349 321 5 19 30 22 22 18 19 25 18 32 50 58 67 62
326 332 338 340 332 319 336 354 354 348 338 306 282 272 284 295 299 320 293 309 306 260 258 283 306 160 203 256 249 200 247 290 32 23 359 9 336 357 7 359 10 19 26 31 26 30 26 28 28 31 40 48 49 51
325 330 337 339 327 316 322 335 342 337 331 316 293 286 290 262 255 259 298 291 257 199 259 229 285 3 185 234 180 56 240 217 266 40 32 30 346 32 335 355 11 19 23 25 31 29 26 26 27 25 29 33 41 45
320 327 336 340 327 322 321 323 327 328 326 317 296 260 228 239 302 300 319 292 210 240 223 248 262 307 224 199 206 164 283 350 298 25 235 83 284 45 8 0 9 24 30 24 29 27 28 28 24 23 25 26 30 37
319 325 335 334 326 342 341 325 321 321 324 319 252 257 261 300 293 186 254 230 138 226 204 240 246 309 286 285 349 219 131 203 285 133 289 350 335 32 9 7 2 25 35 29 28 30 29 31 33 31 29 31 30 30
319 323 326 316 303 316 349 333 318 308 293 272 263 275 281 242 238 259 304 197 234 314 274 274 328 275 265 252 247 189 220 212 326 137 321 329 14 8 360 7 4 4 26 39 36 26 29 29 31 35 35 32 32 30
320 322 314 300 288 273 330 335 314 307 313 303 231 230 225 211 318 19 337 289 307 331 303 286 290 230 211 222 250 229 225 43 128 168 220 278 46 357 359 353 359 357 2 28 31 32 28 26 26 26 30 35 31 31
329 324 315 295 276 253 296 325 309 301 305 248 238 293 253 227 250 303 309 320 327 308 310 305 281 213 206 217 280 240 62 214 236 152 235 21 62 3 337 347 344 356 5 5 17 15 15 22 23 21 18 19 28 37
335 332 339 357 256 256 302 305 289 280 276 269 259 256 237 312 295 297 308 289 298 302 305 279 241 242 193 225 220 156 211 190 198 233 8 35 14 326 332 332 339 345 359 4 12 9 13 11 11 16 16 13 17 27
343 329 323 321 302 300 297 294 255 263 255 244 242 261 270 288 311 326 312 287 298 301 291 244 254 230 210 232 200 203 270 197 97 350 17 60 239 312 312 301 320 327 338 13 14 11 10 27 17 15 17 20 26 30
349 296 297 298 299 303 292 243 246 237 253 241 247 281 297 300 302 316 324 327 322 315 346 5 342 5 345 325 56 27 24 19 324 246 269 84 4 343 324 309 309 300 214 46 28 20 18 14 19 26 21 25 32 34
342 321 315 300 301 318 287 201 242 251 251 256 277 314 319 310 318 346 6 359 360 26 55 178 76 290 252 320 37 0 322 299 266 255 192 191 271 327 328 321 325 272 197 176 58 31 23 15 15 39 27 15 21 37
329 312 308 225 336 299 243 236 220 268 263 303 302 327 330 340 21 7 16 31 28 10 144 141 196 314 51 304 275 289 304 288 253 183 198 235 282 278 286 309 325 291 227 195 44 34 42 41 28 9 12 14 26 32
320 303 250 267 259 219 244 226 232 266 285 341 322 347 358 32 29 37 28 19 357 5 69 20 34 83 139 227 248 289 298 315 267 263 242 218 314 296 274 284 290 228 185 169 176 5 28 53 34 33 38 26 20 47
332 322 325 240 239 216 258 254 247 268 307 312 338 352 48 42 35 29 30 19 29 28 60 84 126 313 209 221 297 312 276 259 237 268 304 358 351 301 285 271 247 200 193 202 252 173 2 27 27 51 38 30 41 59
304 306 279 238 220 241 253 241 267 290 278 313 335 7 42 45 33 27 358 36 39 28 23 290 263 275 327 278 303 321 284 254 237 261 230 254 293 290 223 158 150 168 236 277 249 172 53 30 38 54 62 64 74 70
320 266 213 216 235 237 243 266 261 262 279 326 319 13 51 52 18 5 69 29 26 5 5 347 312 276 307 318 323 327 301 235 248 275 162 114 6 130 166 217 192 11 320 201 232 212 93 123 94 78 74 78 103 99
298 202 216 225 221 249 236 234 242 267 274 289 330 7 49 15 355 37 44 34 7 16 20 18 2 350 333 5 22 29 43 54 353 81 102 341 165 144 140 132 85 78 8 342 91 191 147 118 104 104 102 93 69 47
272 200 213 231 222 234 225 218 230 244 273 294 298 112 73 331 15 65 29 13 6 5 359 357 351 352 357 18 35 31 42 29 16 57 14 21 152 165 197 246 320 286 162 273 210 219 108 101 112 93 75 75 34 335
257 196 195 203 172 234 239 256 226 259 274 253 116 98 162 204 346 60 28 359 5 6 8 8 11 12 33 13 2 0 1 24 54 57 61 50 23 337 357 17 98 92 89 128 13 58 85 91 102 96 60 32 83 48
255 194 199 215 238 235 246 254 273 253 243 230 163 178 202 274 74 85 46 28 25 32 52 47 33 24 12 9 25 56 68 72 77 74 65 52 45 43 41 55 77 69 66 82 49 85 97 105 100 58 54 75 56 34
243 229 217 181 213 230 265 246 237 231 200 183 177 208 318 20 89 132 118 112 89 87 77 52 43 42 54 64 75 74 56 58 77 76 62 68 56 51 49 39 55 80 85 87 80 89 84 77 67 76 73 66 60 64
222 205 200 222 221 222 228 232 250 211 189 185 220 131 121 96 138 144 147 138 116 86 57 44 44 45 52 55 52 34 21 35 56 66 77 80 69 49 56 70 93 85 82 82 106 102 88 95 92 79 67 64 80 75
213 191 215 219 224 222 187 206 231 190 170 162 140 123 127 140 167 167 162 150 136 126 98 81 59 56 55 45 44 57 63 71 79 101 100 81 73 73 74 80 79 81 84 81 73 64 74 75 79 81 57 54 53 78
181 192 232 240 244 178 203 187 160 156 160 169 165 187 168 173 184 184 182 175 161 143 123 100 73 64 57 69 92 97 91 81 85 93 96 87 83 87 88 86 84 81 82 91 100 94 83 81 81 71 60 52 51 47
205 216 227 235 190 209 159 192 193 200 188 186 180 176 168 184 195 199 198 180 171 166 166 140 113 94 88 96 108 114 116 105 92 86 84 86 83 86 88 85 77 81 89 94 101 104 88 78 82 72 57 41 20 9
216 222 233 243 207 205 195 188 200 193 210 219 207 202 198 204 211 201 197 183 181 182 164 155 136 123 118 125 128 125 122 117 115 112 104 107 114 114 99 96 93 92 96 99 94 87 86 85 75 49 31 19 4 354